Dewpoint
44 44 45 47 43 41 41 44 43 43 43 45 44 44 43 43 43 43 44 44 45 45 46 47 48 49 44 25 13 16 18 23 16 14 14 14 15 13 11 13 16 15 22 26 30 30 32
47 45 45 44 46 44 42 41 42 45 44 45 45 44 43 42 43 43 44 44 44 45 46 47 48 50 39 16 16 13 13 9 9 11 12 15 14 13 12 14 16 22 24 26 29 30 31
48 49 49 48 45 46 46 43 44 44 44 43 44 46 44 43 43 44 44 45 45 45 46 48 49 42 29 14 11 14 11 8 9 13 14 18 18 14 16 16 23 26 26 28 29 29 29
45 45 46 47 49 46 46 47 46 45 44 43 43 45 46 45 46 45 45 45 46 46 48 49 49 36 25 15 15 11 9 9 11 13 19 21 21 18 20 23 25 23 24 22 26 28 27
42 44 44 45 46 49 47 46 46 47 45 45 44 45 46 46 46 45 45 45 46 48 49 47 37 32 14 18 9 9 11 9 10 13 21 20 21 16 24 22 20 20 17 17 22 25 24
42 42 43 43 43 44 48 48 48 47 46 46 46 45 46 46 46 45 45 45 45 45 40 30 25 19 14 7 8 10 12 12 12 15 19 17 16 18 20 18 12 15 11 19 19 23 21
39 40 40 40 41 42 43 46 46 47 47 47 46 45 46 46 45 44 43 33 24 23 21 14 9 8 11 10 11 11 12 11 12 16 11 14 12 14 16 15 12 14 12 15 19 20 21
35 36 37 38 38 39 41 43 43 45 45 47 47 45 46 46 44 43 44 33 38 40 30 14 10 11 17 14 7 10 12 11 14 12 11 11 10 11 14 15 14 13 13 18 23 24 22
35 35 35 34 36 38 39 41 42 43 44 44 47 47 45 46 44 43 40 38 40 42 32 20 11 11 12 14 7 9 12 14 13 9 10 7 7 11 11 14 13 14 15 20 20 21 20
36 37 36 34 35 35 38 40 41 42 43 43 44 47 47 44 38 37 40 39 42 45 24 14 18 10 10 12 6 9 12 13 12 10 7 6 16 12 11 11 13 13 16 21 18 16 14
34 33 34 37 37 34 36 38 39 41 43 43 44 46 47 45 36 36 40 39 42 43 22 12 15 8 11 8 7 10 13 15 11 9 11 13 14 10 9 10 12 14 16 17 19 16 17
34 33 32 33 35 36 34 36 37 39 42 43 43 44 46 40 38 36 39 41 41 26 17 12 15 9 8 7 5 8 13 16 13 14 13 14 11 9 8 11 13 18 17 17 15 12 14
35 33 33 32 33 36 36 35 36 37 39 39 41 43 43 41 34 39 41 39 23 25 11 10 8 6 8 5 2 9 10 13 10 8 10 13 12 16 18 13 16 16 15 12 10 10 13
35 34 33 33 33 35 37 35 34 36 37 39 40 42 40 40 40 40 39 31 24 18 7 8 7 8 3 6 1 6 9 9 9 8 8 7 9 15 17 14 14 12 13 9 7 6 7
34 33 32 32 33 35 36 37 35 34 36 38 39 37 39 39 43 39 33 28 25 13 -1 8 7 6 5 5 1 2 7 8 7 7 7 7 9 14 17 17 16 13 11 15 14 16 10
34 34 33 32 33 35 36 36 37 34 36 37 31 34 34 39 43 36 30 29 19 12 16 9 6 7 5 6 4 2 6 10 8 10 12 10 12 14 17 19 17 18 16 16 17 17 6
34 34 34 33 34 34 36 36 37 34 36 36 33 33 39 41 41 28 28 26 24 14 18 20 7 8 8 7 5 4 3 7 11 10 13 13 15 13 15 15 15 17 17 17 19 14 10
33 33 34 33 34 34 35 36 37 34 35 36 36 30 40 40 31 20 25 23 22 17 17 26 24 11 11 9 6 5 3 7 11 13 12 13 14 12 14 14 12 14 14 18 30 25 19
32 33 34 33 33 34 36 37 37 34 36 30 32 33 39 36 29 27 22 22 22 21 16 21 25 19 14 12 10 8 8 14 13 14 13 15 15 14 12 14 13 14 13 14 19 24 30
32 33 33 33 33 34 35 37 38 35 36 31 32 27 32 35 29 25 22 19 22 23 23 16 23 22 17 14 14 13 10 21 18 15 21 19 11 12 8 9 12 11 14 13 14 18 10
32 32 32 32 32 33 34 35 37 36 38 31 32 28 32 29 28 26 21 18 15 17 19 18 18 21 18 18 14 14 12 21 21 23 20 18 13 12 10 8 7 9 9 14 13 16 8
31 32 32 32 32 33 33 35 37 36 36 31 29 29 29 26 28 24 24 19 15 14 15 15 15 12 19 17 17 15 14 19 16 20 20 20 14 13 15 12 9 7 7 7 10 10 8
30 32 32 32 31 32 33 34 36 35 34 31 31 33 31 22 24 21 26 23 18 14 13 13 13 14 11 19 23 24 25 20 16 19 18 19 21 16 16 13 7 8 9 8 8 10 6
29 31 31 31 30 32 34 35 35 35 36 34 29 30 26 20 22 24 26 26 25 19 16 12 14 16 19 26 24 24 24 23 23 18 19 18 17 20 20 13 12 14 11 9 10 9 7
28 30 31 30 30 31 34 35 35 34 37 37 34 26 25 21 19 22 24 24 22 22 23 17 17 15 25 24 21 25 26 24 24 22 22 18 18 28 23 16 11 8 12 10 8 8 8
28 28 28 29 29 30 32 36 35 34 34 38 38 31 29 23 18 24 21 23 23 24 24 24 24 24 26 22 20 24 20 18 18 20 21 20 20 23 25 17 11 10 8 8 9 9 10
30 29 29 28 29 29 31 34 36 37 36 36 36 36 27 23 16 19 19 27 29 27 29 25 25 26 26 22 24 21 16 15 15 16 19 20 24 25 24 15 11 9 5 8 9 11 6
28 30 30 29 30 30 31 33 35 36 38 37 36 38 33 26 21 18 19 21 22 25 27 32 29 28 26 22 20 20 15 15 14 16 17 16 20 23 23 20 13 13 12 8 16 22 20
30 30 31 30 31 30 31 32 34 35 36 38 33 39 38 33 25 25 25 22 24 25 25 32 31 32 32 25 20 18 14 14 17 15 17 15 18 19 20 19 18 17 12 19 23 21 21
Wind_Speed
9 10 12 9 7 7 7 6 8 10 11 11 11 14 17 19 20 20 19 19 19 19 19 18 18 17 11 9 3 11 4 8 9 7 9 9 13 16 17 17 15 14 9 21 23 19 23
11 9 11 12 7 9 9 9 12 12 14 14 13 13 15 19 21 22 21 20 20 20 19 18 17 18 10 11 5 3 2 4 5 7 6 9 10 10 14 12 15 15 17 16 17 24 27
18 17 15 13 12 12 10 12 12 12 10 14 13 14 16 18 21 22 23 22 21 20 19 18 15 9 9 3 1 2 4 4 2 4 6 3 7 9 4 7 18 25 27 23 19 23 19
18 17 15 19 19 9 10 13 14 14 12 15 16 13 15 18 21 23 24 24 23 21 18 15 11 9 8 2 4 6 3 7 5 5 4 3 8 13 12 15 19 21 24 22 19 23 15
15 16 16 18 20 18 12 13 14 13 13 14 15 16 17 19 22 25 27 27 25 16 9 7 7 9 7 8 9 4 4 4 6 7 5 3 8 9 10 24 21 20 23 19 15 18 15
13 16 18 18 19 19 19 15 15 13 13 14 15 18 18 20 23 26 30 27 6 5 7 10 11 7 9 10 7 3 5 5 9 11 9 10 10 13 20 25 24 21 23 23 16 15 13
18 17 17 17 18 20 19 18 19 20 16 12 14 18 18 21 24 29 20 5 6 6 14 10 3 7 3 5 6 9 6 10 10 14 15 17 15 21 25 25 20 20 18 15 18 11 14
15 16 17 18 18 18 19 18 17 18 20 17 15 17 19 22 26 29 13 5 6 5 7 22 10 10 4 2 10 10 9 12 15 17 18 15 20 21 21 22 12 22 16 18 11 6 7
16 15 17 16 17 19 20 17 16 15 17 19 19 19 18 23 28 13 6 5 7 5 7 10 18 15 12 11 12 15 16 13 16 18 15 17 11 9 15 13 15 16 23 19 15 14 8
15 16 17 17 16 17 19 20 16 17 16 18 19 19 18 25 14 8 2 9 7 3 6 13 11 11 16 11 10 9 15 10 9 17 18 15 6 12 15 19 16 14 14 19 18 20 13
15 16 17 19 17 17 16 18 19 19 15 17 16 18 17 12 12 5 6 11 6 3 4 16 15 12 17 15 14 15 11 9 15 13 10 7 10 16 19 19 18 11 6 13 15 20 12
13 15 16 17 19 18 17 17 19 20 17 17 16 17 17 12 10 6 10 13 3 4 10 10 11 16 22 23 13 18 14 11 10 12 13 8 12 13 16 11 12 13 15 11 12 14 12
13 15 16 18 19 19 18 16 17 18 19 19 19 19 15 15 10 8 11 5 6 8 4 10 11 21 25 18 18 18 22 20 14 21 18 11 13 5 9 16 9 18 20 12 11 15 19
14 15 17 18 19 18 19 17 17 18 18 20 22 25 13 12 11 11 7 9 11 7 15 3 9 17 24 22 20 22 22 25 23 19 21 18 10 16 17 19 15 25 24 9 12 18 18
15 16 16 17 17 18 18 18 17 17 17 20 27 12 10 11 5 6 11 16 8 9 15 8 12 20 19 20 14 23 27 27 29 25 13 20 9 16 18 12 9 21 21 7 4 4 5
16 16 17 18 18 17 19 19 17 16 16 18 13 14 15 4 6 9 16 17 12 3 8 11 15 20 22 25 15 21 22 26 25 20 8 10 15 16 11 10 12 10 14 8 7 5 8
17 17 17 17 17 18 18 19 17 14 15 17 11 5 3 4 7 13 20 17 17 6 7 10 20 15 15 19 22 28 16 8 26 25 10 11 9 17 15 20 22 11 16 9 9 11 9
17 17 17 17 18 18 18 18 17 11 15 12 5 5 3 7 13 14 21 19 11 10 9 10 9 11 15 18 23 22 24 18 20 21 23 16 10 22 25 14 18 23 17 20 7 6 6
17 17 16 16 17 17 18 18 14 9 7 8 4 5 3 8 8 13 14 22 22 13 14 9 10 12 11 13 11 22 19 5 17 24 23 16 11 20 18 8 12 17 26 23 18 6 9
18 17 16 16 16 17 17 17 13 8 2 7 4 4 6 8 13 13 19 19 21 14 20 13 9 5 11 13 16 12 16 6 13 21 9 20 15 21 21 9 15 31 27 23 24 17 13
17 16 16 17 17 17 17 17 14 7 4 7 3 5 3 5 12 17 17 10 22 24 16 14 16 15 15 10 15 13 20 8 11 14 11 17 21 21 19 11 13 23 31 30 29 29 20
17 16 15 16 17 17 17 18 15 8 7 7 4 4 7 17 14 17 18 18 16 19 20 20 18 19 12 13 15 14 16 13 13 17 21 19 17 19 18 10 14 16 26 30 32 28 27
15 15 15 15 16 17 17 17 13 8 10 4 3 3 3 9 11 16 13 20 17 17 9 20 15 20 18 11 1 7 12 12 8 18 24 22 15 16 15 16 14 17 21 29 28 31 29
14 14 15 16 16 17 16 14 7 8 14 9 6 5 6 13 13 8 6 12 17 21 19 11 16 13 3 2 2 1 1 6 8 15 21 21 23 12 10 20 26 12 18 22 26 27 29
13 13 14 15 16 16 16 14 9 7 11 13 7 8 7 12 13 13 9 9 16 16 18 19 8 12 2 4 9 2 1 2 5 13 14 23 22 7 8 20 7 22 15 20 28 26 25
14 15 14 15 16 16 16 13 8 8 10 12 11 10 5 8 15 6 8 8 11 13 19 17 16 6 4 10 13 10 12 10 9 10 13 17 17 18 10 18 15 20 18 20 20 26 24
16 15 16 15 16 15 14 13 8 6 11 12 4 15 7 6 15 13 10 8 5 7 9 14 18 14 12 16 12 14 22 20 15 19 14 18 17 21 13 14 11 10 11 13 22 6 17
18 17 16 15 16 15 14 13 11 5 12 6 4 10 10 7 15 10 12 14 7 7 8 6 7 11 16 16 18 13 17 24 22 21 23 19 19 14 17 17 14 15 13 15 5 4 4
21 20 18 17 17 16 14 12 11 10 9 6 3 6 12 8 9 10 12 16 15 8 10 4 8 6 6 11 13 13 13 19 18 23 21 25 19 19 18 19 5 18 10 11 4 7 4
Wind_Direction
332 339 339 325 300 322 323 342 336 318 319 314 328 338 342 341 338 335 330 327 325 321 318 315 314 315 305 223 236 120 212 217 245 244 255 222 227 218 220 203 179 217 122 114 135 120 121
322 328 339 339 307 305 318 312 317 313 315 322 311 324 331 335 334 332 328 322 319 315 311 308 308 312 247 250 79 165 267 235 253 232 229 232 227 242 258 159 192 141 139 121 124 116 121
23 20 351 338 319 321 297 307 311 320 321 327 322 314 319 328 328 328 325 317 310 307 302 296 294 289 262 288 211 233 179 256 260 268 220 256 281 220 152 116 114 138 131 125 136 136 139
6 12 3 4 358 307 318 309 301 313 323 332 327 326 319 322 322 321 318 313 306 300 293 282 275 267 267 139 303 227 202 187 202 202 259 235 239 246 186 132 148 163 153 149 160 154 175
359 0 5 8 7 2 329 322 325 313 310 317 323 323 321 321 320 318 316 309 299 288 251 235 249 231 251 132 213 160 227 205 176 177 181 200 221 196 142 171 172 185 178 175 158 192 160
1 7 10 5 1 355 3 7 0 341 325 307 319 323 322 320 319 317 315 299 287 263 221 216 255 252 227 216 155 187 167 204 182 170 166 192 196 185 190 191 189 188 204 155 163 174 193
11 5 1 359 356 352 350 0 2 1 345 333 327 326 325 322 320 316 317 214 198 198 206 212 228 248 138 167 185 212 175 181 198 189 188 196 202 199 197 202 203 189 217 157 126 161 150
348 355 355 358 357 351 343 347 349 349 354 346 331 327 328 323 318 314 292 279 33 345 268 229 236 245 253 267 202 191 182 191 187 197 200 186 222 203 208 209 250 199 187 134 123 159 211
357 351 345 340 347 349 349 334 337 340 339 341 346 328 330 322 315 302 32 28 330 310 258 202 220 220 196 207 218 185 195 211 196 205 201 202 196 156 197 194 226 198 188 168 170 165 183
360 354 348 346 338 338 346 346 335 334 328 330 344 336 330 325 297 334 162 354 349 312 257 183 198 216 200 210 220 175 208 200 207 205 193 221 124 191 186 200 207 193 190 168 156 174 187
347 345 351 351 341 343 339 343 346 341 329 331 332 340 330 314 306 288 8 341 329 247 239 156 153 138 177 196 140 196 190 213 194 181 185 174 187 190 201 202 201 172 138 171 183 206 189
337 338 342 345 345 338 337 336 342 346 342 335 327 325 333 287 266 287 323 316 240 211 236 174 163 188 179 205 210 151 186 232 210 171 212 148 172 192 204 197 194 140 157 180 200 224 227
333 332 335 336 336 337 332 332 332 339 340 335 329 320 306 300 276 332 316 248 195 212 161 180 187 181 188 184 192 181 184 188 173 178 171 164 167 140 152 160 175 177 165 174 206 213 235
334 330 331 332 335 333 333 330 331 330 334 330 322 308 277 265 285 302 274 208 217 195 211 154 175 184 195 181 198 196 192 194 213 195 166 171 183 175 184 187 183 193 191 190 211 213 227
328 327 325 327 332 330 328 325 320 328 328 329 312 305 271 251 242 246 230 209 208 236 206 181 178 186 195 190 202 200 205 207 204 207 180 199 167 170 178 185 197 194 206 287 288 278 264
331 326 324 324 328 326 326 325 318 324 328 330 308 301 268 209 211 240 221 222 221 272 302 213 189 192 194 193 200 196 199 215 199 211 179 185 148 171 166 213 208 237 191 207 222 209 225
331 326 326 329 326 323 323 322 325 318 323 321 288 268 128 172 202 218 218 224 238 225 271 242 224 205 217 198 203 199 201 199 202 197 187 211 168 185 167 203 189 183 207 211 238 242 251
328 326 325 327 324 323 323 321 324 314 323 304 337 247 138 181 201 217 223 226 255 248 235 253 276 233 223 205 201 207 223 194 219 185 197 196 203 181 199 200 215 200 213 193 184 217 233
325 320 320 322 323 323 325 321 319 302 329 319 291 284 212 208 230 225 227 237 246 239 236 219 231 226 220 217 206 224 212 224 196 188 196 163 177 172 178 204 227 228 205 210 204 187 223
322 317 316 321 319 320 324 323 320 283 272 288 299 280 234 221 250 249 219 234 228 225 259 240 252 228 212 218 212 209 208 147 190 206 216 176 212 199 191 205 193 206 211 208 208 216 221
322 315 317 319 317 317 319 320 321 275 203 277 229 261 27 219 236 242 247 232 227 227 225 229 238 232 212 203 216 218 209 145 194 211 210 201 226 212 228 258 197 203 206 204 209 216 218
319 317 315 316 317 316 317 318 317 284 205 255 269 320 328 281 273 231 240 242 237 229 225 224 235 225 220 229 209 215 207 186 183 193 206 200 224 225 224 230 233 214 207 211 213 217 229
319 315 313 316 316 318 318 317 315 301 225 251 222 234 275 279 271 247 231 231 238 234 237 236 233 236 227 233 233 346 310 212 222 189 198 199 213 217 211 218 216 226 216 208 215 219 221
313 312 311 314 320 321 324 314 322 283 227 248 281 271 270 268 253 255 302 270 242 240 232 235 238 239 232 49 118 200 186 230 234 205 199 200 203 200 209 210 225 230 220 220 219 222 223
306 301 304 309 314 320 324 319 335 254 248 250 258 239 259 264 270 271 243 290 268 233 237 228 203 229 89 243 225 143 109 66 289 212 205 209 195 170 189 213 250 217 215 219 211 224 219
309 305 300 299 307 313 319 320 309 258 249 241 251 255 257 269 262 307 278 281 280 260 231 223 238 207 223 238 215 209 195 195 184 184 215 209 227 191 193 220 219 234 213 214 220 237 226
300 297 295 298 299 304 310 315 299 302 269 243 242 241 230 254 268 259 267 288 293 283 278 220 214 217 217 222 219 220 225 203 188 190 183 192 207 208 197 221 239 259 137 169 190 245 200
291 288 285 286 289 293 298 305 297 271 281 256 275 229 230 250 274 280 270 262 275 261 276 1 230 215 204 214 212 212 232 225 223 199 184 186 182 199 210 209 231 137 151 197 185 125 135
287 284 280 276 277 282 285 290 292 281 245 237 239 210 227 255 271 318 290 284 282 279 300 315 326 344 344 219 222 219 229 227 227 228 203 204 197 195 197 212 242 175 196 176 194 160 141